| time (UTC) | temp C | wind direction | speed KPH | gust KPH | rain 1hr cm | rain 24hr cm | rain mn cm | humidity % | barometer mb |
| 20260506153544 | 20 | 198 | 4.8 | 14.5 | 0.00 | 0.00 | 0.00 | 68 | 1009.0 |
| 20260506153050 | 20 | 180 | 4.8 | 14.5 | 0.00 | 0.00 | 0.00 | 69 | 1009.1 |
| 20260506152542 | 20 | 218 | 1.6 | 12.9 | 0.00 | 0.00 | 0.00 | 70 | 1009.0 |
| 20260506152040 | 20 | 211 | 4.8 | 16.1 | 0.00 | 0.00 | 0.00 | 70 | 1009.1 |
| 20260506151540 | 20 | 192 | 4.8 | 16.1 | 0.00 | 0.00 | 0.00 | 69 | 1009.2 |
| 20260506151039 | 20 | 202 | 3.2 | 11.3 | 0.00 | 0.00 | 0.00 | 69 | 1009.1 |
| 20260506150538 | 20 | 166 | 3.2 | 16.1 | 0.00 | 0.00 | 0.00 | 70 | 1009.1 |
| 20260506150038 | 20 | 180 | 4.8 | 16.1 | 0.00 | 0.00 | 0.00 | 70 | 1009.3 |
| 20260506145536 | 20 | 204 | 3.2 | 9.7 | 0.00 | 0.00 | 0.00 | 71 | 1009.2 |
| 20260506145035 | 19 | 192 | 3.2 | 12.9 | 0.00 | 0.00 | 0.00 | 71 | 1009.3 |
| 20260506144535 | 19 | 196 | 4.8 | 17.7 | 0.00 | 0.00 | 0.00 | 71 | 1009.2 |
| 20260506144035 | 19 | 180 | 4.8 | 17.7 | 0.00 | 0.00 | 0.00 | 71 | 1009.2 |
| 20260506143539 | 19 | 169 | 4.8 | 14.5 | 0.00 | 0.00 | 0.00 | 71 | 1009.2 |
| 20260506143046 | 19 | 174 | 3.2 | 9.7 | 0.00 | 0.00 | 0.00 | 72 | 1009.3 |
| 20260506142536 | 19 | 185 | 4.8 | 14.5 | 0.00 | 0.00 | 0.00 | 72 | 1009.3 |
| 20260506142034 | 18 | 235 | 4.8 | 14.5 | 0.00 | 0.00 | 0.00 | 72 | 1009.3 |
| 20260506141536 | 19 | 173 | 3.2 | 14.5 | 0.00 | 0.00 | 0.00 | 71 | 1009.3 |
| 20260506141034 | 19 | 14 | 3.2 | 11.3 | 0.00 | 0.00 | 0.00 | 72 | 1009.4 |
| 20260506140530 | 18 | 189 | 3.2 | 11.3 | 0.00 | 0.00 | 0.00 | 74 | 1009.2 |
| 20260506140030 | 18 | 233 | 1.6 | 17.7 | 0.00 | 0.00 | 0.00 | 73 | 1009.0 |
| 20260506135528 | 18 | 188 | 4.8 | 17.7 | 0.00 | 0.00 | 0.00 | 73 | 1009.0 |
| 20260506135028 | 18 | 218 | 1.6 | 12.9 | 0.00 | 0.00 | 0.00 | 74 | 1009.2 |
| 20260506134527 | 18 | 197 | 4.8 | 12.9 | 0.00 | 0.00 | 0.00 | 73 | 1009.3 |
| 20260506134027 | 18 | 196 | 3.2 | 12.9 | 0.00 | 0.00 | 0.00 | 73 | 1009.3 |
| 20260506133525 | 18 | 185 | 4.8 | 11.3 | 0.00 | 0.00 | 0.00 | 74 | 1009.3 |
| 20260506133024 | 18 | 187 | 3.2 | 12.9 | 0.00 | 0.00 | 0.00 | 75 | 1009.4 |
| 20260506132524 | 18 | 165 | 3.2 | 12.9 | 0.00 | 0.00 | 0.00 | 76 | 1009.7 |
| 20260506132024 | 17 | 212 | 4.8 | 9.7 | 0.00 | 0.00 | 0.00 | 76 | 1009.7 |
| 20260506131523 | 17 | 183 | 4.8 | 9.7 | 0.00 | 0.00 | 0.00 | 76 | 1009.7 |
| 20260506131023 | 17 | 249 | 1.6 | 17.7 | 0.00 | 0.00 | 0.00 | 77 | 1009.6 |
| 20260506130519 | 17 | 197 | 3.2 | 17.7 | 0.00 | 0.00 | 0.00 | 77 | 1009.6 |
| 20260506130022 | 17 | 197 | 3.2 | 9.7 | 0.00 | 0.00 | 0.00 | 78 | 1009.7 |
| 20260506125517 | 17 | 200 | 1.6 | 9.7 | 0.00 | 0.00 | 0.00 | 79 | 1009.8 |
| 20260506125016 | 17 | 195 | 3.2 | 11.3 | 0.00 | 0.00 | 0.00 | 79 | 1009.6 |
| 20260506124516 | 17 | 204 | 4.8 | 11.3 | 0.00 | 0.00 | 0.00 | 79 | 1009.7 |
| 20260506124015 | 16 | 188 | 1.6 | 11.3 | 0.00 | 0.00 | 0.00 | 80 | 1009.6 |
| 20260506123514 | 16 | 211 | 3.2 | 11.3 | 0.00 | 0.00 | 0.00 | 80 | 1009.7 |
| 20260506123014 | 16 | 198 | 3.2 | 14.5 | 0.00 | 0.00 | 0.00 | 80 | 1009.6 |
| 20260506122513 | 16 | 184 | 4.8 | 14.5 | 0.00 | 0.00 | 0.00 | 81 | 1009.5 |
| 20260506122012 | 16 | 205 | 3.2 | 11.3 | 0.00 | 0.00 | 0.00 | 81 | 1009.6 |
| 20260506121511 | 16 | 141 | 1.6 | 11.3 | 0.00 | 0.00 | 0.00 | 82 | 1009.6 |
| 20260506121011 | 16 | 199 | 1.6 | 8.0 | 0.00 | 0.00 | 0.00 | 82 | 1009.8 |
| 20260506120511 | 15 | 189 | 1.6 | 11.3 | 0.00 | 0.00 | 0.00 | 83 | 1009.8 |
| 20260506120010 | 15 | 199 | 4.8 | 11.3 | 0.00 | 0.00 | 0.00 | 83 | 1009.9 |
| 20260506115510 | 15 | 180 | 1.6 | 11.3 | 0.00 | 0.00 | 0.00 | 84 | 1009.9 |
| 20260506115009 | 15 | 194 | 3.2 | 11.3 | 0.00 | 0.00 | 0.00 | 84 | 1010.0 |
| 20260506114511 | 15 | 194 | 3.2 | 8.0 | 0.00 | 0.00 | 0.00 | 84 | 1010.0 |
| 20260506114009 | 15 | 191 | 3.2 | 8.0 | 0.00 | 0.00 | 0.00 | 84 | 1010.1 |
| 20260506113509 | 15 | 189 | 3.2 | 9.7 | 0.00 | 0.00 | 0.00 | 84 | 1010.2 |
| 20260506113009 | 15 | 233 | 1.6 | 9.7 | 0.00 | 0.00 | 0.00 | 84 | 1010.1 |
| 20260506112511 | 15 | 221 | 3.2 | 9.7 | 0.00 | 0.00 | 0.00 | 85 | 1010.1 |
| 20260506112008 | 15 | 169 | 1.6 | 9.7 | 0.00 | 0.00 | 0.00 | 85 | 1010.1 |
| 20260506111508 | 15 | 207 | 1.6 | 9.7 | 0.00 | 0.00 | 0.00 | 85 | 1010.3 |
| 20260506111008 | 14 | 173 | 3.2 | 8.0 | 0.00 | 0.00 | 0.00 | 86 | 1010.2 |
| 20260506110510 | 14 | 199 | 1.6 | 6.4 | 0.00 | 0.00 | 0.00 | 86 | 1010.2 |
| 20260506110008 | 14 | 207 | 0.0 | 8.0 | 0.00 | 0.00 | 0.00 | 86 | 1010.2 |
| 20260506105507 | 14 | 187 | 3.2 | 8.0 | 0.00 | 0.00 | 0.00 | 86 | 1010.1 |
| 20260506105008 | 14 | 193 | 1.6 | 9.7 | 0.00 | 0.00 | 0.00 | 86 | 1010.1 |
| 20260506104506 | 14 | 164 | 1.6 | 9.7 | 0.00 | 0.00 | 0.00 | 86 | 1010.0 |
| 20260506104005 | 14 | 183 | 1.6 | 9.7 | 0.00 | 0.00 | 0.00 | 86 | 1009.9 |
| 20260506103505 | 14 | 164 | 1.6 | 9.7 | 0.00 | 0.00 | 0.00 | 86 | 1009.8 |
| 20260506103006 | 14 | 198 | 1.6 | 8.0 | 0.00 | 0.00 | 0.00 | 86 | 1009.8 |
| 20260506102505 | 14 | 206 | 0.0 | 8.0 | 0.00 | 0.00 | 0.00 | 86 | 1009.8 |
| 20260506102005 | 14 | 205 | 0.0 | 8.0 | 0.00 | 0.00 | 0.00 | 86 | 1009.9 |
| 20260506101506 | 14 | 195 | 1.6 | 9.7 | 0.00 | 0.00 | 0.00 | 87 | 1009.9 |
| 20260506101005 | 14 | 168 | 1.6 | 9.7 | 0.00 | 0.00 | 0.00 | 87 | 1009.9 |
| 20260506100505 | 14 | 197 | 3.2 | 12.9 | 0.00 | 0.00 | 0.00 | 87 | 1009.8 |
| 20260506100005 | 14 | 197 | 1.6 | 12.9 | 0.00 | 0.00 | 0.00 | 87 | 1009.8 |
| 20260506095505 | 14 | 201 | 3.2 | 8.0 | 0.00 | 0.00 | 0.00 | 87 | 1009.7 |
| 20260506095004 | 14 | 195 | 0.0 | 12.9 | 0.00 | 0.00 | 0.00 | 87 | 1009.7 |
| 20260506094504 | 14 | 190 | 1.6 | 12.9 | 0.00 | 0.00 | 0.00 | 87 | 1009.8 |
| 20260506094003 | 14 | 221 | 1.6 | 9.7 | 0.00 | 0.00 | 0.00 | 87 | 1009.7 |
| 20260506093502 | 14 | 197 | 1.6 | 8.0 | 0.00 | 0.00 | 0.00 | 87 | 1009.7 |
| 20260506093004 | 14 | 209 | 1.6 | 8.0 | 0.00 | 0.00 | 0.00 | 86 | 1009.7 |
| 20260506092502 | 14 | 182 | 1.6 | 6.4 | 0.00 | 0.00 | 0.00 | 86 | 1009.8 |
| 20260506092002 | 14 | 155 | 0.0 | 9.7 | 0.00 | 0.00 | 0.00 | 86 | 1009.8 |
| 20260506091505 | 14 | 206 | 4.8 | 9.7 | 0.00 | 0.00 | 0.00 | 86 | 1009.8 |
| 20260506091000 | 14 | 204 | 1.6 | 8.0 | 0.00 | 0.00 | 0.00 | 86 | 1009.8 |
| 20260506090501 | 14 | 214 | 3.2 | 8.0 | 0.00 | 0.00 | 0.00 | 86 | 1009.8 |
| 20260506090100 | 14 | 190 | 3.2 | 9.7 | 0.00 | 0.00 | 0.00 | 85 | 1009.8 |
| 20260506090002 | 14 | 178 | 3.2 | 9.7 | 0.00 | 0.00 | 0.00 | 85 | 1009.8 |
| 20260506085600 | 14 | 216 | 3.2 | 11.3 | 0.00 | 0.00 | 0.00 | 85 | 1009.9 |
| 20260506085100 | 15 | 202 | 1.6 | 11.3 | 0.00 | 0.00 | 0.00 | 85 | 1010.0 |
| 20260506084602 | 15 | 195 | 4.8 | 11.3 | 0.00 | 0.00 | 0.00 | 85 | 1010.0 |
| 20260506084103 | 15 | 182 | 3.2 | 11.3 | 0.00 | 0.00 | 0.00 | 85 | 1010.0 |
| 20260506083558 | 15 | 237 | 3.2 | 9.7 | 0.00 | 0.00 | 0.00 | 85 | 1010.0 |
| 20260506083104 | 15 | 205 | 1.6 | 11.3 | 0.00 | 0.00 | 0.00 | 85 | 1010.0 |
| 20260506082600 | 15 | 188 | 1.6 | 16.1 | 0.00 | 0.00 | 0.00 | 84 | 1010.1 |
| 20260506082056 | 15 | 180 | 4.8 | 16.1 | 0.00 | 0.00 | 0.00 | 84 | 1010.1 |
| 20260506081556 | 15 | 188 | 3.2 | 14.5 | 0.00 | 0.00 | 0.00 | 84 | 1010.0 |
| 20260506081056 | 15 | 195 | 1.6 | 14.5 | 0.00 | 0.00 | 0.00 | 84 | 1010.1 |
| 20260506080556 | 15 | 209 | 3.2 | 14.5 | 0.00 | 0.00 | 0.00 | 84 | 1010.0 |
| 20260506073053 | 15 | 220 | 3.2 | 9.7 | 0.00 | 0.00 | 0.00 | 83 | 1009.9 |
| 20260506072553 | 15 | 199 | 1.6 | 8.0 | 0.00 | 0.00 | 0.00 | 83 | 1010.0 |
| 20260506072052 | 15 | 180 | 1.6 | 8.0 | 0.00 | 0.00 | 0.00 | 83 | 1009.9 |
| 20260506071551 | 15 | 202 | 1.6 | 12.9 | 0.00 | 0.00 | 0.00 | 83 | 1009.9 |
| 20260506071051 | 15 | 186 | 1.6 | 12.9 | 0.00 | 0.00 | 0.00 | 83 | 1009.8 |
| 20260506070551 | 15 | 203 | 3.2 | 12.9 | 0.00 | 0.00 | 0.00 | 83 | 1009.8 |
| 20260506062049 | 15 | 176 | 3.2 | 14.5 | 0.00 | 0.00 | 0.00 | 82 | 1009.8 |
| 20260506061549 | 15 | 179 | 1.6 | 14.5 | 0.00 | 0.00 | 0.00 | 82 | 1009.8 |
| 20260506061049 | 15 | 188 | 4.8 | 14.5 | 0.00 | 0.00 | 0.00 | 82 | 1009.8 |
| 20260506060549 | 15 | 203 | 4.8 | 17.7 | 0.00 | 0.00 | 0.00 | 81 | 1009.8 |
| 20260506051043 | 15 | 184 | 3.2 | 11.3 | 0.00 | 0.00 | 0.00 | 81 | 1010.2 |
| 20260506050542 | 15 | 190 | 4.8 | 9.7 | 0.00 | 0.00 | 0.00 | 81 | 1010.4 |
| 20260506045041 | 15 | 212 | 3.2 | 9.7 | 0.00 | 0.00 | 0.00 | 80 | 1010.5 |
| 20260506044546 | 15 | 182 | 3.2 | 11.3 | 0.00 | 0.00 | 0.00 | 80 | 1010.6 |
| 20260506044042 | 15 | 183 | 1.6 | 11.3 | 0.00 | 0.00 | 0.00 | 79 | 1010.6 |
| 20260506043539 | 15 | 197 | 3.2 | 9.7 | 0.00 | 0.00 | 0.00 | 79 | 1010.6 |
| 20260506043039 | 15 | 212 | 3.2 | 9.7 | 0.00 | 0.00 | 0.00 | 79 | 1010.5 |
| 20260506042539 | 15 | 194 | 3.2 | 8.0 | 0.00 | 0.00 | 0.00 | 79 | 1010.6 |
| 20260506042037 | 15 | 216 | 1.6 | 12.9 | 0.00 | 0.00 | 0.00 | 78 | 1010.5 |
| 20260506041536 | 15 | 202 | 3.2 | 12.9 | 0.00 | 0.00 | 0.00 | 78 | 1010.4 |
| 20260506041036 | 15 | 187 | 1.6 | 11.3 | 0.00 | 0.00 | 0.00 | 77 | 1010.4 |
| 20260506040534 | 16 | 190 | 3.2 | 11.3 | 0.00 | 0.00 | 0.00 | 76 | 1010.3 |
| 20260506040051 | 16 | 170 | 0.0 | 11.3 | 0.00 | 0.00 | 0.00 | 76 | 1010.3 |
| 20260506035532 | 16 | 176 | 4.8 | 11.3 | 0.00 | 0.00 | 0.00 | 76 | 1010.2 |
| 20260506035032 | 16 | 173 | 3.2 | 9.7 | 0.00 | 0.00 | 0.00 | 75 | 1010.2 |
| 20260506034534 | 16 | 195 | 1.6 | 9.7 | 0.00 | 0.00 | 0.00 | 75 | 1010.3 |
| 20260506034032 | 16 | 196 | 3.2 | 11.3 | 0.00 | 0.00 | 0.00 | 75 | 1010.1 |
| 20260506033531 | 16 | 185 | 3.2 | 11.3 | 0.00 | 0.00 | 0.00 | 75 | 1010.2 |
| 20260506033031 | 16 | 185 | 1.6 | 9.7 | 0.00 | 0.00 | 0.00 | 75 | 1010.0 |
| 20260506032531 | 16 | 220 | 3.2 | 8.0 | 0.00 | 0.00 | 0.00 | 75 | 1010.1 |
| 20260506032033 | 16 | 188 | 1.6 | 6.4 | 0.00 | 0.00 | 0.00 | 75 | 1010.1 |
| 20260506031544 | 16 | 184 | 0.0 | 8.0 | 0.00 | 0.00 | 0.00 | 75 | 1010.0 |
| 20260506031031 | 15 | 187 | 1.6 | 14.5 | 0.00 | 0.00 | 0.00 | 75 | 1010.1 |
| 20260506030530 | 15 | 223 | 1.6 | 14.5 | 0.00 | 0.00 | 0.00 | 75 | 1010.2 |
| 20260506030030 | 15 | 196 | 3.2 | 8.0 | 0.00 | 0.00 | 0.00 | 75 | 1010.2 |
| 20260506025530 | 15 | 203 | 1.6 | 9.7 | 0.00 | 0.00 | 0.00 | 75 | 1010.1 |
| 20260506025030 | 15 | 181 | 1.6 | 9.7 | 0.00 | 0.00 | 0.00 | 74 | 1010.2 |
| 20260506024530 | 15 | 184 | 0.0 | 8.0 | 0.00 | 0.00 | 0.00 | 74 | 1010.2 |
| 20260506024031 | 15 | 201 | 1.6 | 6.4 | 0.00 | 0.00 | 0.00 | 73 | 1010.2 |
| 20260506023531 | 16 | 185 | 3.2 | 8.0 | 0.00 | 0.00 | 0.00 | 73 | 1010.1 |
| 20260506023030 | 16 | 183 | 3.2 | 8.0 | 0.00 | 0.00 | 0.00 | 73 | 1010.1 |
| 20260506022529 | 15 | 216 | 0.0 | 8.0 | 0.00 | 0.00 | 0.00 | 73 | 1010.0 |
| 20260506022029 | 16 | 228 | 0.0 | 8.0 | 0.00 | 0.00 | 0.00 | 72 | 1010.0 |
| 20260506021529 | 16 | 183 | 0.0 | 11.3 | 0.00 | 0.00 | 0.00 | 72 | 1010.0 |
| 20260506021031 | 16 | 172 | 3.2 | 11.3 | 0.00 | 0.00 | 0.00 | 72 | 1010.0 |
| 20260506020532 | 16 | 190 | 1.6 | 8.0 | 0.00 | 0.00 | 0.00 | 71 | 1010.0 |
| 20260506020028 | 16 | 185 | 3.2 | 9.7 | 0.00 | 0.00 | 0.00 | 71 | 1010.0 |
| 20260506015528 | 16 | 196 | 4.8 | 12.9 | 0.00 | 0.00 | 0.00 | 71 | 1010.0 |
| 20260506015028 | 16 | 212 | 3.2 | 12.9 | 0.00 | 0.00 | 0.00 | 71 | 1010.0 |
| 20260506014531 | 16 | 182 | 1.6 | 12.9 | 0.00 | 0.00 | 0.00 | 71 | 1009.9 |
| 20260506014027 | 16 | 193 | 1.6 | 11.3 | 0.00 | 0.00 | 0.00 | 72 | 1009.8 |
| 20260506013527 | 16 | 201 | 3.2 | 11.3 | 0.00 | 0.00 | 0.00 | 71 | 1009.8 |
| 20260506013027 | 16 | 202 | 1.6 | 11.3 | 0.00 | 0.00 | 0.00 | 72 | 1009.8 |
| 20260506012527 | 16 | 213 | 3.2 | 11.3 | 0.00 | 0.00 | 0.00 | 72 | 1009.9 |
| 20260506012029 | 16 | 202 | 3.2 | 9.7 | 0.00 | 0.00 | 0.00 | 72 | 1009.8 |
| 20260506011528 | 16 | 190 | 1.6 | 8.0 | 0.00 | 0.00 | 0.00 | 73 | 1009.7 |
| 20260506011026 | 16 | 171 | 1.6 | 8.0 | 0.00 | 0.00 | 0.00 | 73 | 1009.7 |
| 20260506010526 | 16 | 165 | 1.6 | 8.0 | 0.00 | 0.00 | 0.00 | 73 | 1009.6 |
| 20260506010026 | 16 | 195 | 3.2 | 9.7 | 0.00 | 0.00 | 0.00 | 73 | 1009.6 |
| 20260506005526 | 16 | 185 | 4.8 | 14.5 | 0.00 | 0.00 | 0.00 | 72 | 1009.4 |
| 20260506005024 | 16 | 180 | 4.8 | 14.5 | 0.00 | 0.00 | 0.00 | 73 | 1009.3 |
| 20260506004527 | 16 | 176 | 3.2 | 14.5 | 0.00 | 0.00 | 0.00 | 73 | 1009.3 |
| 20260506004029 | 16 | 216 | 1.6 | 14.5 | 0.00 | 0.00 | 0.00 | 73 | 1009.4 |
| 20260506003524 | 16 | 207 | 3.2 | 11.3 | 0.00 | 0.00 | 0.00 | 73 | 1009.3 |
| 20260506003024 | 16 | 190 | 1.6 | 6.4 | 0.00 | 0.00 | 0.00 | 73 | 1009.3 |
| 20260506002523 | 16 | 202 | 1.6 | 6.4 | 0.00 | 0.00 | 0.00 | 73 | 1009.2 |
| 20260506002024 | 16 | 202 | 1.6 | 6.4 | 0.00 | 0.00 | 0.00 | 73 | 1009.1 |
| 20260506001524 | 16 | 197 | 1.6 | 8.0 | 0.00 | 0.00 | 0.00 | 73 | 1009.1 |
| 20260506001024 | 16 | 195 | 3.2 | 8.0 | 0.00 | 0.00 | 0.00 | 72 | 1009.0 |
| 20260506000523 | 16 | 215 | 0.0 | 6.4 | 0.00 | 0.00 | 0.00 | 72 | 1009.0 |
| 20260506000024 | 16 | 206 | 1.6 | 6.4 | 0.00 | 0.00 | 0.00 | 72 | 1008.8 |
| 20260505235525 | 16 | 211 | 1.6 | 6.4 | 0.00 | 0.00 | 0.00 | 72 | 1008.5 |
| 20260505235022 | 16 | 204 | 1.6 | 6.4 | 0.00 | 0.00 | 0.00 | 73 | 1008.5 |
| 20260505234522 | 16 | 214 | 1.6 | 6.4 | 0.00 | 0.00 | 0.00 | 72 | 1008.3 |
| 20260505234021 | 16 | 204 | 0.0 | 12.9 | 0.00 | 0.00 | 0.00 | 72 | 1008.2 |
| 20260505233521 | 16 | 197 | 3.2 | 12.9 | 0.00 | 0.00 | 0.00 | 71 | 1008.1 |
| 20260505233022 | 16 | 176 | 3.2 | 12.9 | 0.00 | 0.00 | 0.00 | 71 | 1008.0 |
| 20260505232521 | 16 | 190 | 3.2 | 11.3 | 0.00 | 0.00 | 0.00 | 71 | 1008.1 |
| 20260505232022 | 16 | 205 | 3.2 | 14.5 | 0.00 | 0.00 | 0.00 | 71 | 1008.0 |
| 20260505231528 | 16 | 186 | 4.8 | 14.5 | 0.00 | 0.00 | 0.00 | 70 | 1007.9 |
| 20260505231021 | 17 | 203 | 4.8 | 16.1 | 0.00 | 0.00 | 0.00 | 70 | 1008.0 |
| 20260505230520 | 17 | 169 | 6.4 | 16.1 | 0.00 | 0.00 | 0.00 | 69 | 1008.1 |
| 20260505230027 | 17 | 170 | 3.2 | 12.9 | 0.00 | 0.00 | 0.00 | 69 | 1008.1 |
| 20260505225522 | 17 | 180 | 3.2 | 14.5 | 0.00 | 0.00 | 0.00 | 69 | 1008.1 |
| 20260505225020 | 17 | 172 | 3.2 | 14.5 | 0.00 | 0.00 | 0.00 | 68 | 1008.1 |
| 20260505224520 | 17 | 192 | 4.8 | 16.1 | 0.00 | 0.00 | 0.00 | 68 | 1008.1 |
| 20260505224019 | 17 | 263 | 4.8 | 16.1 | 0.00 | 0.00 | 0.00 | 68 | 1008.0 |
| 20260505223525 | 17 | 194 | 3.2 | 11.3 | 0.00 | 0.00 | 0.00 | 68 | 1008.0 |
| 20260505223021 | 17 | 193 | 1.6 | 16.1 | 0.00 | 0.00 | 0.00 | 68 | 1007.9 |
| 20260505222519 | 17 | 180 | 6.4 | 16.1 | 0.00 | 0.00 | 0.00 | 67 | 1007.8 |
| 20260505222019 | 18 | 223 | 3.2 | 11.3 | 0.00 | 0.00 | 0.00 | 67 | 1007.8 |
| 20260505221519 | 18 | 188 | 3.2 | 16.1 | 0.00 | 0.00 | 0.00 | 67 | 1007.7 |
| 20260505221018 | 18 | 204 | 3.2 | 16.1 | 0.00 | 0.00 | 0.00 | 66 | 1007.8 |
| 20260505220518 | 18 | 214 | 3.2 | 12.9 | 0.00 | 0.00 | 0.00 | 66 | 1007.9 |
| 20260505220020 | 18 | 204 | 4.8 | 9.7 | 0.00 | 0.00 | 0.00 | 65 | 1007.8 |
| 20260505215619 | 18 | 202 | 1.6 | 9.7 | 0.00 | 0.00 | 0.00 | 65 | 1007.7 |
| 20260505215018 | 18 | 195 | 1.6 | 9.7 | 0.00 | 0.00 | 0.00 | 65 | 1007.7 |
| 20260505214517 | 18 | 234 | 1.6 | 9.7 | 0.00 | 0.00 | 0.00 | 65 | 1007.7 |
| 20260505214016 | 18 | 221 | 1.6 | 9.7 | 0.00 | 0.00 | 0.00 | 65 | 1007.7 |
| 20260505213516 | 18 | 158 | 3.2 | 8.0 | 0.00 | 0.00 | 0.00 | 66 | 1007.7 |
| 20260505213016 | 18 | 201 | 1.6 | 6.4 | 0.00 | 0.00 | 0.00 | 67 | 1007.6 |
| 20260505212516 | 18 | 197 | 1.6 | 8.0 | 0.00 | 0.00 | 0.00 | 67 | 1007.6 |
| 20260505212017 | 18 | 175 | 1.6 | 8.0 | 0.00 | 0.00 | 0.00 | 66 | 1007.7 |
| 20260505211517 | 18 | 166 | 1.6 | 8.0 | 0.00 | 0.00 | 0.00 | 65 | 1007.6 |
| 20260505211015 | 19 | 195 | 1.6 | 8.0 | 0.00 | 0.00 | 0.00 | 63 | 1007.6 |
| 20260505210516 | 20 | 230 | 0.0 | 6.4 | 0.00 | 0.00 | 0.00 | 62 | 1007.5 |
| 20260505210023 | 20 | 184 | 1.6 | 6.4 | 0.00 | 0.00 | 0.00 | 61 | 1007.6 |
| 20260505205515 | 21 | 225 | 0.0 | 6.4 | 0.00 | 0.00 | 0.00 | 60 | 1007.2 |
| 20260505205014 | 21 | 201 | 0.0 | 9.7 | 0.00 | 0.00 | 0.00 | 60 | 1007.2 |
| 20260505204514 | 21 | 171 | 1.6 | 11.3 | 0.00 | 0.00 | 0.00 | 58 | 1007.1 |
| 20260505204013 | 22 | 204 | 3.2 | 11.3 | 0.00 | 0.00 | 0.00 | 58 | 1007.3 |
| 20260505203512 | 22 | 228 | 3.2 | 11.3 | 0.00 | 0.00 | 0.00 | 58 | 1007.5 |
| 20260505203012 | 22 | 209 | 1.6 | 9.7 | 0.00 | 0.00 | 0.00 | 59 | 1007.4 |
| 20260505202512 | 21 | 231 | 1.6 | 12.9 | 0.00 | 0.00 | 0.00 | 59 | 1007.5 |
| 20260505202014 | 21 | 206 | 1.6 | 12.9 | 0.00 | 0.00 | 0.00 | 59 | 1007.5 |
| 20260505201512 | 21 | 206 | 1.6 | 12.9 | 0.00 | 0.00 | 0.00 | 59 | 1007.5 |
| 20260505201011 | 22 | 202 | 0.0 | 8.0 | 0.00 | 0.00 | 0.00 | 59 | 1007.6 |
| 20260505200514 | 22 | 327 | 1.6 | 9.7 | 0.00 | 0.00 | 0.00 | 59 | 1007.5 |
| 20260505200022 | 22 | 202 | 3.2 | 9.7 | 0.00 | 0.00 | 0.00 | 58 | 1007.5 |
| 20260505195514 | 22 | 223 | 1.6 | 9.7 | 0.00 | 0.00 | 0.00 | 58 | 1007.3 |
| 20260505195009 | 22 | 207 | 3.2 | 9.7 | 0.00 | 0.00 | 0.00 | 57 | 1007.4 |
| 20260505194509 | 22 | 171 | 1.6 | 9.7 | 0.00 | 0.00 | 0.00 | 56 | 1007.5 |
| 20260505194007 | 22 | 207 | 1.6 | 6.4 | 0.00 | 0.00 | 0.00 | 56 | 1007.6 |
| 20260505193507 | 23 | 192 | 0.0 | 6.4 | 0.00 | 0.00 | 0.00 | 56 | 1007.7 |
| 20260505193005 | 23 | 211 | 1.6 | 6.4 | 0.00 | 0.00 | 0.00 | 56 | 1007.7 |
| 20260505192505 | 22 | 189 | 0.0 | 8.0 | 0.00 | 0.00 | 0.00 | 58 | 1007.7 |
| 20260505192005 | 22 | 209 | 0.0 | 8.0 | 0.00 | 0.00 | 0.00 | 57 | 1007.7 |
| 20260505191504 | 22 | 198 | 1.6 | 6.4 | 0.00 | 0.00 | 0.00 | 58 | 1007.8 |
| 20260505191009 | 22 | 202 | 0.0 | 6.4 | 0.00 | 0.00 | 0.00 | 58 | 1007.8 |
| 20260505190504 | 22 | 209 | 1.6 | 8.0 | 0.00 | 0.00 | 0.00 | 58 | 1007.9 |
| 20260505190004 | 22 | 216 | 0.0 | 8.0 | 0.00 | 0.00 | 0.00 | 58 | 1007.8 |
| 20260505185503 | 22 | 157 | 1.6 | 6.4 | 0.00 | 0.00 | 0.00 | 58 | 1007.8 |
| 20260505185002 | 22 | 217 | 1.6 | 6.4 | 0.00 | 0.00 | 0.00 | 58 | 1007.8 |
| 20260505184502 | 22 | 191 | 1.6 | 4.8 | 0.00 | 0.00 | 0.00 | 58 | 1007.8 |
| 20260505184001 | 22 | 207 | 1.6 | 8.0 | 0.00 | 0.00 | 0.00 | 58 | 1007.8 |
| 20260505183603 | 22 | 204 | 1.6 | 8.0 | 0.00 | 0.00 | 0.00 | 58 | 1007.8 |
| 20260505183100 | 22 | 223 | 1.6 | 6.4 | 0.00 | 0.00 | 0.00 | 60 | 1008.0 |
| 20260505182600 | 22 | 189 | 0.0 | 6.4 | 0.00 | 0.00 | 0.00 | 60 | 1008.0 |
| 20260505182100 | 22 | 254 | 1.6 | 6.4 | 0.00 | 0.00 | 0.00 | 61 | 1008.0 |
| 20260505181601 | 22 | 216 | 0.0 | 6.4 | 0.00 | 0.00 | 0.00 | 60 | 1008.0 |
| 20260505181059 | 22 | 202 | 1.6 | 6.4 | 0.00 | 0.00 | 0.00 | 59 | 1008.1 |
| 20260505180558 | 22 | 228 | 0.0 | 6.4 | 0.00 | 0.00 | 0.00 | 58 | 1008.0 |
| 20260505180059 | 23 | 230 | 0.0 | 6.4 | 0.00 | 0.00 | 0.00 | 57 | 1008.0 |
| 20260505175559 | 23 | 183 | 0.0 | 8.0 | 0.00 | 0.00 | 0.00 | 56 | 1008.1 |
| 20260505175057 | 23 | 206 | 1.6 | 8.0 | 0.00 | 0.00 | 0.00 | 56 | 1008.1 |
| 20260505174603 | 23 | 158 | 1.6 | 9.7 | 0.00 | 0.00 | 0.00 | 56 | 1008.2 |
| 20260505174057 | 23 | 188 | 1.6 | 9.7 | 0.00 | 0.00 | 0.00 | 55 | 1008.2 |
| 20260505173555 | 23 | 192 | 1.6 | 9.7 | 0.00 | 0.00 | 0.00 | 56 | 1008.3 |
| 20260505173056 | 23 | 219 | 1.6 | 8.0 | 0.00 | 0.00 | 0.00 | 56 | 1008.4 |
| 20260505172555 | 23 | 140 | 1.6 | 8.0 | 0.00 | 0.00 | 0.00 | 56 | 1008.4 |
| 20260505172054 | 23 | 222 | 1.6 | 11.3 | 0.00 | 0.00 | 0.00 | 54 | 1008.4 |
| 20260505171554 | 23 | 221 | 1.6 | 11.3 | 0.00 | 0.00 | 0.00 | 56 | 1008.4 |
| 20260505171053 | 23 | 228 | 0.0 | 8.0 | 0.00 | 0.00 | 0.00 | 55 | 1008.4 |
| 20260505170552 | 23 | 198 | 3.2 | 8.0 | 0.00 | 0.00 | 0.00 | 54 | 1008.4 |
| 20260505170052 | 23 | 209 | 0.0 | 6.4 | 0.00 | 0.00 | 0.00 | 57 | 1008.4 |
| 20260505165549 | 23 | 233 | 0.0 | 6.4 | 0.00 | 0.00 | 0.00 | 58 | 1008.5 |
| 20260505165047 | 23 | 173 | 1.6 | 6.4 | 0.00 | 0.00 | 0.00 | 59 | 1008.6 |
| 20260505164610 | 22 | 208 | 0.0 | 6.4 | 0.00 | 0.00 | 0.00 | 61 | 1008.7 |
| 20260505164047 | 22 | 249 | 0.0 | 6.4 | 0.00 | 0.00 | 0.00 | 60 | 1008.8 |
| 20260505163542 | 22 | 207 | 0.0 | 6.4 | 0.00 | 0.00 | 0.00 | 62 | 1008.9 |
| 20260505163050 | 21 | 204 | 1.6 | 6.4 | 0.00 | 0.00 | 0.00 | 61 | 1008.9 |
| 20260505162539 | 21 | 205 | 0.0 | 4.8 | 0.00 | 0.00 | 0.00 | 64 | 1008.9 |
| 20260505162038 | 20 | 220 | 0.0 | 4.8 | 0.00 | 0.00 | 0.00 | 64 | 1009.0 |
| 20260505161537 | 20 | 219 | 0.0 | 8.0 | 0.00 | 0.00 | 0.00 | 68 | 1009.1 |
| 20260505161036 | 20 | 209 | 0.0 | 8.0 | 0.00 | 0.00 | 0.00 | 67 | 1009.1 |
| 20260505160534 | 19 | 194 | 1.6 | 6.4 | 0.00 | 0.00 | 0.00 | 67 | 1009.2 |